Theta_e
323 322 332 335 337 337 345 345 342 341 341 342 343 338 336 340 341 339 342 343 330 326 333 335 331 325 323 325 324 322 321 321 322 325 327 331 334 337 337 336 337 338 337 337 337 336 336 337 341
322 323 328 335 333 340 341 341 343 339 339 344 346 345 342 344 343 344 344 337 331 323 332 333 329 324 323 326 323 323 324 325 326 329 334 337 338 336 336 335 337 337 337 337 336 336 336 338 342
322 323 324 324 327 335 338 340 342 342 342 344 347 345 342 342 341 344 343 338 331 323 332 331 327 323 324 326 324 326 327 328 331 334 335 335 336 336 335 335 336 335 333 333 334 335 337 342 342
321 321 324 324 328 327 331 339 340 342 342 343 344 346 344 344 343 344 344 342 330 323 330 329 326 322 325 325 324 327 328 329 333 334 334 336 335 335 335 335 335 334 331 332 333 336 339 341 341
322 324 322 325 326 325 330 338 340 339 341 342 344 345 344 345 345 344 345 341 327 324 328 328 325 322 324 325 324 328 329 333 333 333 333 334 334 334 334 334 332 331 330 331 332 335 337 339 340
320 321 321 324 324 325 337 339 339 343 342 342 343 342 344 344 344 343 344 340 328 324 327 327 324 323 324 325 324 328 331 333 333 333 333 332 333 333 332 330 328 328 328 329 330 332 336 338 338
314 316 320 321 324 325 335 339 340 341 343 344 341 344 342 343 342 344 342 337 326 325 326 326 323 325 325 324 325 328 330 333 332 332 331 331 331 328 326 326 328 329 328 328 330 335 337 337 337
316 311 316 318 320 323 327 341 340 339 342 342 341 346 341 343 344 344 338 328 322 324 325 325 323 325 326 325 326 327 329 332 332 332 330 330 327 325 328 333 333 335 333 330 335 338 341 341 338
316 309 311 317 317 319 337 338 340 341 340 340 342 344 341 343 344 342 333 326 323 325 325 325 323 325 325 325 326 327 329 331 331 331 330 326 325 329 333 334 335 335 335 335 337 340 341 340 341
312 309 311 312 315 316 331 337 340 343 341 339 341 342 342 343 344 342 341 336 325 323 325 325 323 325 326 326 326 328 329 330 330 329 329 325 328 331 332 332 334 336 338 338 338 341 340 338 338
310 309 310 314 317 318 317 331 337 343 343 341 338 341 341 341 342 343 342 340 333 321 324 325 323 325 326 327 326 328 328 329 329 329 325 331 330 336 335 336 336 338 339 339 338 340 342 340 339
312 311 312 314 316 316 312 320 341 342 331 329 335 338 341 339 341 336 342 337 327 323 324 324 323 324 326 328 327 327 328 328 328 328 329 333 338 339 339 339 340 340 340 340 338 339 340 341 339
311 311 312 316 315 313 314 326 333 338 324 334 339 339 339 339 336 336 341 342 337 326 324 325 323 324 326 327 328 328 328 328 329 326 334 334 336 338 338 339 339 339 340 339 337 336 336 334 335
314 312 314 315 315 313 318 335 338 322 326 338 340 339 337 342 339 338 339 342 342 330 323 324 324 324 325 326 327 328 328 329 328 326 335 334 334 335 336 338 339 340 340 340 338 337 336 337 338
314 313 311 311 314 315 331 336 342 323 333 341 342 337 336 336 337 338 337 342 341 338 329 323 323 324 325 326 327 328 328 328 327 326 334 334 336 335 334 336 338 341 341 340 339 339 339 339 336
313 310 311 311 312 321 321 315 319 330 336 340 342 340 339 336 337 338 338 341 342 340 338 330 324 323 324 325 326 327 327 328 327 327 327 330 332 337 335 336 337 338 340 341 341 341 338 335 333
307 311 313 312 313 316 320 313 313 324 339 341 342 340 339 338 337 339 340 341 341 341 340 339 332 324 323 324 325 325 326 327 327 328 333 337 336 336 336 335 338 339 341 341 341 341 337 334 333
312 311 311 312 313 313 312 324 327 338 340 337 336 337 338 339 337 338 339 339 340 341 340 339 334 324 324 324 325 330 332 329 327 334 338 340 340 339 336 335 336 338 339 340 341 339 335 334 334
311 313 315 316 316 323 329 327 326 328 330 330 329 332 335 337 339 340 337 337 338 340 340 340 337 326 324 324 331 339 339 333 330 333 338 341 341 341 339 338 337 336 335 337 335 335 334 334 334
317 320 320 320 321 324 325 325 323 323 325 326 326 327 330 335 337 339 339 336 338 339 340 339 339 331 327 326 336 340 340 339 336 339 339 340 340 341 340 338 337 335 333 333 335 334 333 332 329
320 318 319 321 321 319 320 325 324 323 322 322 323 325 327 329 334 336 338 336 335 337 337 337 338 337 335 334 338 338 339 340 339 339 339 340 340 339 337 335 333 332 333 333 333 332 333 330 324
319 316 315 320 323 320 316 323 324 323 321 321 321 321 323 328 333 335 337 338 337 335 335 335 336 337 337 339 339 339 339 340 340 339 340 340 339 336 334 332 331 331 331 331 332 334 331 325 320
312 311 310 318 322 319 320 321 325 322 322 320 320 320 322 325 327 332 335 336 338 338 336 336 336 336 337 338 338 340 340 340 339 339 339 338 336 334 332 332 332 331 331 330 330 329 325 316 315
310 314 315 318 313 320 321 321 325 323 322 319 319 320 322 324 327 330 335 334 336 333 332 334 336 337 337 338 340 340 340 340 339 337 336 335 335 334 332 331 331 330 327 322 315 312 310 311 312
308 308 308 311 319 323 319 323 322 322 318 317 318 320 321 322 325 326 330 336 337 333 331 332 336 337 338 337 337 337 339 339 338 337 334 333 332 331 330 329 328 323 320 310 306 306 307 309 310
310 312 309 310 314 312 316 327 322 318 317 318 319 320 319 319 322 323 324 329 335 335 335 335 335 332 331 331 327 325 331 330 335 335 333 331 329 327 326 325 314 309 310 305 304 306 307 307 307
313 313 312 314 317 317 316 324 319 317 316 317 319 318 318 318 318 318 322 324 327 331 325 324 324 323 319 318 318 318 316 315 317 315 318 322 322 321 319 306 306 305 303 302 303 305 306 306 306
313 312 312 309 318 322 318 325 323 317 316 314 316 317 317 317 317 318 319 319 321 322 322 320 320 319 318 317 317 316 316 316 314 313 311 310 311 310 309 308 305 303 302 302 302 304 305 305 304
312 313 311 309 314 317 317 315 317 316 313 313 315 317 316 316 315 318 319 319 319 320 320 320 320 318 318 316 316 316 316 316 315 314 313 311 310 309 307 306 304 302 302 303 302 302 304 304 303
314 315 311 310 311 311 312 314 313 313 312 312 313 316 315 315 315 317 318 318 318 318 318 318 318 318 317 317 317 318 316 315 314 312 310 310 309 306 304 303 303 302 302 302 302 302 301 301 300
Wind_Speed
6 3 3 1 3 4 1 2 2 3 2 2 4 3 3 4 2 3 5 22 24 26 29 28 24 23 23 21 21 21 22 24 25 25 24 22 21 19 18 17 17 17 15 14 13 14 15 16 15
8 5 2 2 4 2 4 2 4 4 3 5 9 8 4 2 3 5 10 21 25 25 29 28 25 24 24 23 22 23 24 25 25 24 23 21 19 18 17 17 17 16 15 15 14 15 15 15 13
12 7 1 4 3 4 3 4 5 2 5 5 2 4 5 2 3 3 17 23 26 25 28 27 26 25 25 25 24 25 25 26 25 23 21 20 19 18 17 17 16 15 14 14 14 15 15 13 13
11 6 4 4 5 5 5 5 7 4 2 3 6 5 5 6 2 9 23 23 27 25 27 26 25 25 26 26 26 27 27 26 24 22 21 20 19 18 16 16 15 14 13 14 14 14 14 12 10
12 4 4 2 5 5 2 1 17 5 2 3 2 2 6 3 8 8 19 23 26 26 28 27 26 26 26 26 27 28 27 25 23 21 20 19 17 16 16 15 14 13 13 13 12 12 10 9 7
5 3 3 4 5 4 1 7 10 3 1 5 1 7 4 7 2 2 16 21 25 26 29 28 27 27 26 27 28 29 27 25 22 20 19 17 16 16 15 13 12 12 12 12 10 10 9 8 6
7 4 5 5 3 3 4 10 6 7 4 4 3 3 6 12 14 13 16 21 26 28 29 29 29 28 27 27 28 29 27 25 22 20 18 16 16 15 14 13 12 11 11 12 11 11 10 8 7
6 4 5 4 4 5 2 7 3 6 5 6 8 7 6 16 20 21 22 25 28 30 30 31 31 30 29 29 29 29 28 25 22 19 17 17 16 15 15 14 13 13 13 13 12 11 10 7 8
7 4 3 5 6 5 3 5 7 6 8 9 10 13 14 21 24 28 28 28 30 31 32 33 32 32 30 30 30 30 28 25 22 20 18 17 16 16 16 15 14 13 14 14 14 11 10 10 9
4 4 10 7 6 5 6 9 13 8 8 8 13 17 19 25 32 35 38 36 35 36 35 36 35 34 32 32 32 31 29 27 24 21 20 19 18 17 16 15 14 13 13 12 12 11 9 9 8
6 6 6 9 18 14 4 5 8 9 6 21 29 29 29 27 36 31 33 37 37 38 39 40 38 36 35 34 33 32 30 28 26 24 22 21 21 20 18 17 15 15 13 11 11 10 9 7 5
2 10 10 8 17 9 7 8 8 19 30 26 30 27 29 34 40 30 33 38 40 40 41 42 40 39 36 34 33 32 31 29 28 26 25 25 24 22 20 18 17 16 15 12 11 10 8 6 4
5 5 10 18 15 17 14 15 8 19 34 25 23 28 35 38 36 33 35 38 37 40 42 43 42 41 38 35 33 32 31 31 29 28 27 26 26 23 21 19 18 17 15 13 11 9 7 5 6
7 6 8 10 13 6 8 2 7 22 27 27 23 34 30 44 46 38 38 39 38 39 41 42 43 42 39 37 34 33 32 31 30 29 28 26 27 24 22 20 18 19 15 13 11 8 8 8 9
2 3 5 9 6 7 10 1 9 27 13 22 27 33 37 36 36 44 38 40 39 40 38 43 41 42 40 37 35 34 31 31 31 31 31 29 26 23 21 20 17 18 14 13 13 11 10 12 12
1 4 3 6 4 1 2 8 11 20 17 23 25 28 33 32 31 33 37 40 39 39 40 41 41 41 40 39 36 34 32 32 32 31 31 29 28 24 21 19 18 17 18 17 16 14 13 12 10
6 0 2 7 1 5 3 9 10 19 18 17 10 14 19 19 22 20 30 37 39 42 42 40 40 42 40 39 37 35 34 34 33 33 31 28 27 24 22 20 20 19 19 19 18 16 14 13 12
2 3 4 4 5 2 3 11 15 18 13 16 19 15 15 16 19 17 24 34 40 44 44 41 39 42 41 40 39 36 34 36 35 34 32 29 27 24 23 22 23 23 24 23 21 18 15 13 12
3 3 3 4 4 7 8 15 17 23 24 21 25 24 21 18 18 21 25 29 40 45 49 47 43 42 44 44 43 39 35 34 35 35 34 32 30 28 27 25 24 25 25 24 22 19 16 15 14
3 3 5 5 4 10 9 12 11 18 16 18 19 23 24 22 18 16 16 23 35 43 47 48 44 44 45 45 44 43 41 37 38 38 37 35 34 32 30 27 25 25 24 23 21 19 16 16 16
2 4 4 5 3 5 4 6 8 9 24 28 29 24 25 24 20 17 15 15 25 32 36 41 43 46 46 47 49 47 44 41 41 41 39 37 34 31 29 26 24 22 20 20 20 18 16 16 19
2 1 3 7 0 2 2 3 3 6 9 17 24 28 28 29 25 19 13 21 22 26 24 28 37 41 47 53 52 50 50 50 48 44 42 40 37 31 26 23 20 18 18 19 19 19 17 17 21
5 10 7 5 4 6 7 5 2 4 7 15 20 29 29 27 30 30 24 25 28 24 22 31 37 40 44 54 52 53 52 52 50 48 46 41 36 29 23 19 16 16 17 18 17 17 18 19 20
7 4 5 5 2 4 5 2 3 4 5 7 15 24 25 30 32 32 30 12 24 17 21 21 30 43 48 53 55 57 58 56 53 50 47 43 36 29 23 18 14 16 17 15 14 14 15 16 18
10 7 4 5 5 2 3 4 1 2 3 5 13 23 22 26 31 31 29 13 20 14 12 18 27 40 41 45 50 55 58 57 56 52 47 41 36 29 23 16 15 17 13 12 12 12 12 13 14
4 4 5 1 1 5 6 3 4 3 5 9 14 17 20 25 28 29 27 21 8 7 16 14 19 21 22 30 29 33 46 48 54 49 47 41 33 28 21 17 16 11 11 12 11 11 10 9 8
5 5 2 5 2 1 2 2 6 1 5 8 13 18 19 24 24 24 20 19 9 10 14 18 16 13 20 24 8 4 6 13 28 25 35 41 34 28 21 14 10 6 8 11 11 10 9 8 8
5 1 3 4 1 2 4 3 4 5 8 4 9 14 17 19 18 18 11 14 19 18 15 17 15 16 17 16 15 20 21 4 5 12 10 13 19 22 21 17 13 14 11 12 11 10 10 8 10
4 3 5 4 3 3 2 5 1 3 3 6 8 11 13 14 16 14 7 9 11 11 10 7 8 10 10 10 12 9 7 4 11 6 14 7 14 14 15 14 12 14 14 15 14 12 11 8 9
1 3 4 4 2 1 3 5 2 4 2 6 12 11 7 11 12 9 6 5 2 4 5 6 8 7 7 9 10 11 13 15 17 15 15 10 11 13 10 14 15 15 18 16 14 14 13 11 12
Wind_Direction
227 217 153 125 52 61 260 259 259 270 284 178 147 132 149 105 169 217 331 176 173 166 164 166 164 163 163 160 155 150 145 143 142 140 136 135 134 130 125 122 121 117 117 117 119 123 114 112 105
205 184 150 104 90 53 283 227 226 237 207 150 135 111 103 104 308 308 162 166 172 169 166 165 165 165 165 162 157 152 148 145 142 140 139 138 136 132 129 127 124 117 116 113 115 121 123 120 110
180 170 173 96 112 176 196 226 190 269 256 186 76 96 117 113 304 178 170 164 173 173 169 166 166 167 166 163 160 156 152 150 148 146 144 142 140 137 134 130 125 121 121 121 124 126 130 125 120
162 159 86 100 226 248 199 158 187 193 195 178 144 109 92 38 314 177 169 172 175 174 171 169 169 169 169 166 163 161 159 155 153 151 147 145 144 141 137 133 129 126 124 126 129 133 134 133 123
164 144 89 146 253 261 236 225 171 192 268 354 95 157 87 79 61 170 170 174 179 178 172 173 173 172 171 169 166 165 163 159 155 152 149 148 148 146 143 142 140 137 133 133 134 138 139 140 135
138 128 95 212 243 251 230 195 176 164 258 320 349 152 147 140 155 135 189 180 185 182 176 176 176 176 173 172 170 169 166 163 160 156 154 153 153 154 153 152 149 144 142 142 143 142 139 140 137
137 97 194 185 236 277 206 186 189 165 155 244 226 145 167 178 179 179 189 188 185 187 182 181 179 179 176 174 174 173 172 169 166 163 161 161 161 160 158 154 149 144 145 147 142 134 131 130 130
177 98 144 209 176 252 194 165 258 158 192 226 193 194 204 186 177 172 176 184 187 189 188 186 184 182 181 177 178 177 176 174 172 171 169 167 165 161 158 153 148 144 144 149 142 133 132 132 138
157 76 178 207 165 238 190 159 166 187 172 209 214 219 200 179 183 170 176 187 192 196 191 192 190 187 185 182 181 181 180 178 178 178 175 173 170 165 159 156 153 151 147 152 154 144 134 119 123
124 134 205 204 201 211 210 191 171 158 174 228 219 202 170 181 189 183 184 190 195 198 197 196 194 192 188 186 186 185 184 182 183 183 180 175 174 168 167 166 165 162 155 156 163 158 148 134 135
173 177 212 231 222 230 219 209 206 157 216 219 215 207 200 201 201 194 195 193 197 198 198 199 197 195 192 190 189 189 188 187 188 186 182 179 175 173 171 169 171 172 170 169 168 170 167 171 178
169 232 199 253 239 223 223 219 203 195 236 263 248 231 206 208 214 218 213 201 199 199 201 199 200 198 196 193 193 191 192 192 191 187 185 183 180 177 175 175 182 188 190 188 177 182 191 207 233
192 248 213 256 268 247 235 219 210 225 248 244 235 210 214 207 218 226 214 206 205 205 204 205 203 202 198 196 196 194 194 194 193 191 191 191 190 190 192 194 199 202 202 201 198 200 216 233 276
211 232 256 275 265 240 186 199 173 253 253 231 221 214 216 211 222 225 214 207 207 207 207 209 208 206 203 199 199 197 195 196 197 197 197 199 202 204 204 206 213 213 214 214 208 211 230 252 280
249 263 304 239 232 191 156 270 229 243 261 222 219 212 211 221 228 223 218 207 207 208 208 212 211 210 208 204 202 201 199 200 202 203 203 206 209 214 213 216 220 215 214 213 222 236 252 268 278
342 57 8 319 360 27 348 265 265 256 237 239 223 228 222 229 229 225 225 214 213 211 212 214 213 213 212 209 207 207 206 206 208 210 210 214 217 220 223 223 223 223 224 225 236 247 261 260 252
13 19 322 331 328 129 171 274 300 327 232 248 281 275 257 240 236 226 233 227 222 220 218 219 219 215 212 213 211 212 212 213 214 214 215 219 223 227 228 229 229 231 234 238 244 253 252 247 248
317 3 306 250 277 6 328 350 344 15 46 20 10 353 326 298 302 284 258 245 239 228 226 224 218 216 212 212 212 212 217 217 217 217 217 221 224 226 229 232 235 241 245 247 251 250 243 239 242
119 152 262 256 290 79 62 41 20 28 37 42 24 11 356 322 305 290 264 245 243 241 227 225 219 215 211 211 209 211 214 215 218 220 223 222 227 229 232 234 239 244 245 246 246 244 239 236 233
81 73 341 290 19 94 71 34 29 36 47 48 31 18 6 344 321 289 269 235 225 238 235 228 222 217 212 213 211 215 215 216 221 220 220 225 224 225 229 237 243 244 241 239 240 238 230 227 218
356 72 318 257 56 66 100 47 3 19 33 23 18 16 15 360 348 326 287 251 223 222 229 233 231 222 215 213 214 217 219 220 217 218 217 217 220 225 231 236 239 236 233 232 231 234 243 237 220
298 92 287 279 42 198 34 180 319 340 1 7 359 358 354 354 355 350 301 265 249 231 237 238 233 232 228 218 218 221 219 217 217 215 214 215 218 223 225 228 232 237 240 241 243 245 242 236 222
251 310 261 242 200 121 348 89 316 15 350 349 343 348 352 350 351 347 324 251 239 231 249 261 245 241 237 228 224 225 220 219 215 207 210 213 215 216 220 226 236 247 253 251 248 243 231 223 218
294 331 21 45 87 71 305 111 345 12 339 334 342 347 348 346 357 358 357 244 222 249 250 240 252 254 241 231 220 218 220 219 206 205 207 207 211 213 215 218 240 255 250 244 236 227 218 214 212
22 32 1 23 22 216 300 60 194 290 19 347 335 344 350 355 357 1 3 342 248 249 264 247 246 234 231 227 223 218 219 224 216 211 208 205 201 200 202 208 227 221 224 225 220 214 207 201 208
349 85 127 169 348 281 341 105 212 200 102 12 7 358 355 358 358 2 4 4 292 226 220 230 220 209 217 223 225 231 219 218 212 215 207 199 193 189 188 195 196 202 209 207 205 201 197 189 192
326 36 192 109 27 31 266 294 263 149 85 13 8 9 3 356 0 5 4 12 38 159 114 117 126 113 71 49 18 250 183 201 186 188 187 179 172 171 163 156 172 178 182 182 181 185 180 174 165
89 218 43 9 110 297 285 231 235 342 340 355 18 14 6 357 358 359 20 81 86 79 84 79 60 24 15 38 25 40 55 41 78 118 114 125 134 130 142 143 146 157 164 166 160 162 157 156 145
3 15 48 112 116 171 291 264 190 235 298 328 347 12 8 1 357 355 5 117 111 104 92 42 354 24 15 46 54 36 50 160 103 149 119 99 102 111 113 126 160 149 164 159 149 151 147 145 139
119 144 118 113 242 178 152 273 190 218 254 331 344 4 8 359 347 344 335 282 209 96 106 73 95 98 134 118 159 168 167 145 131 127 121 119 108 101 127 139 156 152 155 144 143 142 136 139 137